DCAAF EDDF-EGLL

Flight info

Callsign DCAAF
Flight time N/A
Altitude 38000
Route OBOKA3W/25C OBOKA Z29 TORNU DCT ABNED L980 LOGAN
Aircraft A20N/M-SDE2E3FGHIRWXY/LB1

Departure

Time 2026-05-04 15:23
Airport Frankfurt Main Airport (EDDF)

Arrival

Time N/A
Airport London Heathrow Airport (EGLL)
Time Latitude Longitude Altitude Speed Heading
2026-05-04 14:55 50.04734 8.56742 357 ft 0 kts 115°
2026-05-04 15:07 50.04737 8.56732 357 ft 1 kts 117°
2026-05-04 15:07 50.04742 8.56719 360 ft 0 kts 123°
2026-05-04 15:07 50.04742 8.56717 360 ft 1 kts 124°
2026-05-04 15:07 50.04756 8.56688 359 ft 3 kts 135°
2026-05-04 15:08 50.04776 8.56672 359 ft 3 kts 183°
2026-05-04 15:08 50.04787 8.56674 358 ft 0 kts 204°
2026-05-04 15:15 50.04785 8.56673 358 ft 2 kts 204°
2026-05-04 15:15 50.04754 8.56647 360 ft 7 kts 216°
2026-05-04 15:15 50.04717 8.56578 363 ft 10 kts 234°
2026-05-04 15:16 50.04648 8.56362 360 ft 15 kts 250°
2026-05-04 15:16 50.04607 8.56184 361 ft 21 kts 250°
2026-05-04 15:16 50.04482 8.55925 358 ft 18 kts 199°
2026-05-04 15:17 50.04425 8.55902 358 ft 7 kts 186°
2026-05-04 15:17 50.04364 8.55918 358 ft 10 kts 161°
2026-05-04 15:18 50.04287 8.55959 360 ft 13 kts 167°
2026-05-04 15:18 50.04205 8.55923 358 ft 13 kts 189°
2026-05-04 15:18 50.04115 8.55955 359 ft 14 kts 151°
2026-05-04 15:19 50.04119 8.56243 362 ft 18 kts 70°
2026-05-04 15:19 50.04167 8.56444 359 ft 22 kts 69°
2026-05-04 15:19 50.04293 8.56974 361 ft 28 kts 70°
2026-05-04 15:20 50.04361 8.57266 363 ft 29 kts 70°
2026-05-04 15:20 50.04433 8.57567 364 ft 30 kts 69°
2026-05-04 15:20 50.04507 8.57876 362 ft 31 kts 71°
2026-05-04 15:20 50.04583 8.58193 364 ft 32 kts 68°
2026-05-04 15:21 50.04650 8.58493 361 ft 22 kts 84°
2026-05-04 15:21 50.04583 8.58595 361 ft 13 kts 158°
2026-05-04 15:21 50.04483 8.58570 364 ft 1 kts 252°
2026-05-04 15:22 50.04478 8.58549 366 ft 0 kts 246°
2026-05-04 15:22 50.04467 8.58511 367 ft 18 kts 246°
2026-05-04 15:23 50.04325 8.57932 367 ft 98 kts 250°
2026-05-04 15:23 50.04010 8.56600 388 ft 159 kts 249°
2026-05-04 15:23 50.03660 8.54947 1069 ft 161 kts 251°
2026-05-04 15:23 50.03272 8.53288 1943 ft 163 kts 250°
2026-05-04 15:24 50.02250 8.49823 3407 ft 196 kts 233°
2026-05-04 15:24 49.99775 8.47893 5216 ft 203 kts 188°
2026-05-04 15:25 49.98379 8.47623 6017 ft 203 kts 188°
2026-05-04 15:25 49.96978 8.47325 6717 ft 203 kts 188°
2026-05-04 15:25 49.95585 8.46893 7414 ft 205 kts 197°
2026-05-04 15:26 49.92652 8.45474 8291 ft 240 kts 202°
2026-05-04 15:26 49.91251 8.44046 9113 ft 244 kts 224°
2026-05-04 15:26 49.89372 8.39589 10756 ft 252 kts 237°
2026-05-04 15:27 49.88721 8.37034 11547 ft 258 kts 255°
2026-05-04 15:27 49.88790 8.31296 12801 ft 282 kts 272°
2026-05-04 15:28 49.89908 8.24864 12980 ft 343 kts 296°
2026-05-04 15:28 49.91302 8.21753 12977 ft 357 kts 304°